Theta_e
316 314 315 316 315 315 316 317 317 316 317 317 316 316 316 316 317 319 318 318 318 319 319 320 322 324 326 326 327 328 335 341 354 354 356 354 352 350 347 350 352 351 349 351
317 315 316 318 318 318 317 317 316 318 319 319 318 317 317 318 318 317 317 317 318 318 320 321 323 324 324 326 327 326 328 333 342 351 354 356 356 356 354 352 351 349 351 351
316 318 319 318 317 318 316 317 318 318 318 317 317 317 319 319 319 318 317 317 318 318 318 319 321 323 326 327 327 327 326 326 332 341 347 350 351 353 354 354 355 353 350 351
318 318 319 318 317 316 315 317 318 318 316 315 317 315 317 318 316 316 317 316 317 318 320 320 319 324 326 324 324 329 332 331 331 329 332 338 341 345 348 349 350 350 351 350
319 318 317 317 317 316 316 316 316 316 315 314 315 314 315 316 318 318 317 316 317 317 318 317 318 321 322 323 326 328 329 330 330 330 330 330 330 332 333 336 343 348 348 350
317 317 317 317 317 317 317 316 316 314 314 315 318 318 317 317 317 318 319 318 318 316 317 319 320 322 323 324 325 326 327 327 327 328 328 330 332 332 333 333 334 334 335 338
317 317 316 317 317 317 316 314 313 314 315 316 317 317 317 317 319 319 319 319 319 319 318 318 319 319 322 324 323 324 323 323 323 323 324 326 328 330 331 334 335 336 335 333
321 324 322 321 318 316 316 316 313 316 318 318 320 322 320 323 324 323 323 321 320 319 318 318 317 317 322 323 323 322 323 323 322 322 322 326 327 328 328 330 330 330 335 337
319 323 322 322 322 321 322 317 316 320 320 320 320 321 322 325 324 323 323 322 321 319 318 317 316 318 319 321 323 321 321 323 324 323 323 324 330 330 331 332 332 331 332 336
324 327 323 323 323 323 323 322 322 320 325 325 323 323 326 329 327 326 324 323 322 319 318 316 314 316 317 317 317 320 322 321 321 321 323 324 326 328 328 328 327 327 328 328
323 324 325 322 323 323 323 325 322 319 326 330 331 328 326 327 326 324 322 322 320 318 315 314 313 316 318 318 318 320 319 319 319 319 320 319 320 324 323 325 326 324 325 325
321 323 326 324 320 319 318 321 327 330 327 325 324 325 324 323 323 323 323 322 321 321 319 314 314 316 318 318 318 318 318 318 318 317 318 318 319 321 322 322 322 321 321 321
321 322 323 321 319 320 324 324 322 322 327 331 330 329 324 324 322 322 323 322 321 320 314 314 314 314 315 316 317 317 317 317 316 316 316 316 316 316 317 321 322 322 321 319
320 321 322 321 321 320 322 323 323 323 327 330 329 327 326 327 323 322 320 319 320 320 317 316 314 314 315 315 315 316 317 316 316 315 315 315 314 314 315 315 315 317 319 317
319 319 319 318 317 317 318 318 318 325 323 326 324 326 323 321 322 319 318 318 320 320 317 315 314 312 313 314 315 315 316 315 315 315 315 315 315 314 314 314 314 315 317 317
319 319 317 318 317 317 318 318 317 317 319 321 322 322 319 317 315 318 318 318 318 317 316 315 314 314 313 315 316 316 316 316 315 314 314 314 314 313 313 313 313 313 314 316
319 317 315 317 318 321 323 320 319 318 317 317 317 316 315 318 318 318 316 315 315 314 315 314 313 312 313 313 313 314 314 314 313 312 312 312 312 311 310 310 311 312 313 315
317 317 316 318 318 323 318 318 320 319 321 320 320 318 316 315 315 315 314 312 313 313 312 311 310 310 311 311 311 311 312 312 311 311 311 311 310 309 309 309 309 308 308 312
314 317 317 320 322 320 317 318 321 321 321 319 319 317 316 315 314 313 312 310 309 309 308 308 310 310 309 309 309 310 311 312 311 311 310 310 310 309 308 307 306 307 307 307
315 315 315 318 323 324 322 320 317 315 320 319 317 315 313 311 312 310 309 309 308 308 309 308 309 309 308 309 310 310 311 309 309 309 309 308 308 307 307 307 306 305 306 306
319 317 317 317 318 318 321 319 318 320 319 317 315 313 311 311 310 308 307 307 307 307 308 308 308 307 307 307 306 306 307 307 307 307 307 307 307 306 306 305 305 305 305 305
319 319 319 319 319 323 318 318 320 318 315 314 312 311 310 309 308 307 306 306 306 306 306 306 306 304 304 304 303 303 303 303 304 303 303 304 305 305 305 305 304 303 303 304
319 319 319 316 319 317 318 318 316 312 311 312 311 309 308 307 307 306 305 305 305 305 305 303 302 301 301 300 300 300 300 300 300 300 300 301 301 302 304 303 303 303 303 303
316 316 318 317 317 316 317 312 312 312 312 311 308 306 306 305 305 305 305 304 302 302 301 300 299 298 298 298 297 297 297 298 298 298 298 298 300 301 302 302 302 302 302 302
312 313 315 315 316 315 314 311 311 312 310 307 306 306 305 304 304 303 301 302 301 299 298 297 297 297 296 295 295 295 295 295 296 297 298 298 298 299 300 301 301 301 301 301
313 314 315 314 313 313 311 311 310 307 306 306 305 305 304 302 301 301 300 299 298 297 296 296 296 295 294 294 293 293 293 293 294 295 296 298 299 299 299 299 300 301 301 301
Wind_Speed
7 3 7 11 11 13 12 8 13 12 16 12 16 12 13 11 7 6 8 9 8 9 9 16 15 12 18 14 9 7 4 1 14 23 25 27 29 30 34 30 24 20 27 35
4 8 13 15 16 15 15 12 11 9 6 4 2 8 8 7 5 7 10 11 11 9 7 6 13 20 17 17 13 7 2 3 4 11 21 25 26 25 26 28 34 38 29 32
9 12 16 15 13 14 11 9 4 5 10 7 5 4 4 5 3 7 8 9 9 12 10 8 8 18 18 20 17 13 9 6 8 7 8 16 20 21 23 26 31 36 39 37
8 12 15 15 11 6 5 8 4 7 8 4 2 5 6 5 11 11 11 10 10 11 9 7 8 9 20 20 16 12 14 12 8 6 8 6 11 14 21 26 28 29 34 42
13 9 8 9 6 7 7 9 8 8 6 6 9 2 6 7 7 15 17 11 11 12 11 11 10 13 18 18 15 17 18 14 9 5 5 10 16 17 18 21 21 24 28 37
12 13 6 7 8 5 7 5 5 5 1 2 4 4 6 10 9 8 6 18 14 11 8 11 18 23 24 23 22 22 21 17 10 6 3 7 12 16 21 25 27 31 34 33
8 13 13 13 5 8 7 3 3 5 4 5 8 6 14 9 12 16 21 8 11 15 11 10 10 9 17 16 17 14 9 6 3 4 6 9 10 12 17 21 26 31 32 33
3 7 4 5 3 7 8 4 5 7 5 5 7 6 9 6 6 14 13 16 17 14 10 10 9 11 17 16 12 7 4 3 7 12 13 10 13 14 15 19 23 29 30 31
5 11 9 13 10 6 6 6 6 1 2 1 4 6 5 8 8 8 9 12 13 11 9 9 10 15 14 9 8 7 3 2 5 13 10 10 10 10 7 10 15 21 24 28
4 4 7 2 6 7 6 5 5 3 1 5 4 6 1 8 11 14 14 12 8 8 8 9 8 11 11 10 10 3 11 11 10 7 6 7 8 8 11 14 18 23 28 27
2 5 5 6 3 4 5 3 4 6 7 5 1 3 6 6 7 6 10 9 7 8 7 6 5 8 18 20 19 14 9 6 6 8 5 9 11 12 13 14 15 20 24 26
1 2 3 6 8 9 9 9 4 3 8 3 4 9 8 8 9 9 8 10 10 3 5 4 4 5 10 10 9 9 8 9 5 7 7 7 8 9 12 17 17 20 24 27
6 2 3 6 6 7 4 4 4 3 2 9 8 4 3 6 7 6 4 4 4 7 9 7 4 5 5 5 3 6 6 6 8 9 7 8 11 16 16 17 20 25 30 32
5 2 3 4 8 12 8 7 5 4 3 4 8 10 6 2 3 3 6 7 5 6 7 1 4 2 4 8 12 12 10 11 13 13 13 12 13 18 22 23 25 29 33 32
4 4 5 8 12 17 18 18 14 13 13 9 9 10 15 7 11 11 11 8 8 8 4 2 3 5 9 16 17 17 13 14 12 14 14 14 16 20 21 22 26 28 33 35
4 3 5 8 14 17 21 17 16 18 15 19 17 19 13 5 6 4 4 4 5 3 4 7 7 5 6 5 4 6 10 12 15 15 15 19 21 24 27 29 31 32 32 34
4 2 3 4 9 12 8 14 15 14 8 7 11 4 8 5 7 5 6 5 5 5 6 7 4 3 7 12 14 15 15 10 11 15 16 16 16 17 18 19 22 23 28 32
3 2 2 3 6 5 5 6 8 2 13 12 9 9 8 7 9 7 6 8 8 8 8 7 5 8 14 19 23 24 22 21 21 20 20 21 21 23 25 24 25 27 26 22
9 4 2 2 2 9 11 3 4 3 5 7 8 5 5 7 12 2 9 7 6 6 6 6 12 15 20 23 28 31 28 22 20 21 22 22 21 22 22 24 24 27 27 26
9 9 4 2 4 3 0 4 11 5 2 7 6 6 5 5 1 5 7 2 6 7 11 13 16 19 19 24 30 27 22 19 18 21 24 24 23 24 25 28 29 30 28 28
4 4 8 5 4 6 8 4 10 3 3 3 4 3 5 3 3 5 8 8 8 11 14 18 19 19 23 17 19 19 20 17 20 21 22 24 26 26 26 28 29 29 28 31
3 3 2 4 5 4 8 5 3 5 3 4 3 4 4 5 7 6 8 9 9 8 15 22 16 17 19 21 21 19 19 23 25 26 28 29 30 31 31 33 26 25 25 28
2 2 1 4 2 5 3 2 5 5 6 6 6 6 6 7 6 8 8 8 11 14 15 18 17 19 21 25 23 24 28 28 28 28 28 28 30 33 28 23 24 27 27 25
3 4 3 3 2 7 6 5 6 9 11 7 7 6 7 7 9 10 10 10 8 14 15 20 24 24 26 27 27 28 31 31 29 29 28 28 27 26 22 22 24 25 25 23
6 4 2 4 7 5 10 7 6 11 5 6 8 7 8 8 9 8 9 9 10 15 22 27 26 24 25 31 29 30 30 30 30 29 28 27 25 25 25 24 21 24 28 28
1 3 1 1 2 2 4 4 4 5 8 8 8 8 7 9 10 10 8 11 16 20 27 25 25 25 28 29 29 28 28 28 28 26 23 22 23 23 21 22 24 25 30 31
Wind_Direction
207 179 226 237 241 245 255 261 222 237 242 222 222 200 205 219 234 157 153 172 198 228 241 218 233 178 128 127 130 120 118 99 212 211 204 213 221 230 233 241 248 242 238 232
256 229 239 224 233 237 251 262 277 283 313 333 289 205 195 204 219 186 192 198 199 207 225 198 161 150 146 146 151 175 214 241 277 205 226 222 223 228 236 240 245 242 247 240
212 237 232 249 250 249 242 241 294 312 314 318 337 284 221 236 227 272 212 207 192 190 205 207 174 165 159 153 152 159 177 199 236 244 246 250 249 252 254 244 239 239 241 244
243 251 257 249 240 265 295 306 279 295 302 266 2 271 268 226 242 242 245 206 193 188 189 192 188 148 148 144 151 160 157 159 187 244 280 306 302 298 281 266 262 256 252 246
264 281 289 301 247 234 249 287 267 248 245 264 298 354 266 296 262 241 236 220 197 184 177 172 173 133 112 95 104 103 105 98 86 57 341 311 308 305 302 300 302 277 268 261
270 295 300 284 322 291 289 265 298 292 205 325 233 236 278 260 261 277 221 216 192 177 149 108 115 109 102 96 97 91 87 80 71 55 7 320 304 303 305 303 300 297 291 292
294 286 288 299 313 329 356 103 330 325 323 221 246 255 241 277 255 265 258 199 111 102 99 98 97 97 100 103 105 102 93 82 35 343 336 323 308 312 311 305 300 299 296 296
228 292 302 333 240 213 271 162 168 226 232 261 339 260 239 288 335 70 55 86 89 89 89 91 91 93 94 96 92 79 47 339 322 310 300 296 287 284 291 292 294 293 297 300
218 236 297 302 292 312 313 290 228 35 315 9 270 311 326 24 4 51 84 100 96 95 93 95 76 69 55 52 107 121 119 53 286 251 254 293 289 281 296 323 312 310 313 312
1 335 270 43 16 312 292 294 317 352 327 287 229 262 208 34 33 35 66 56 54 76 77 65 64 61 42 12 2 265 105 87 80 39 357 17 15 12 341 325 319 313 311 308
211 150 286 359 191 260 323 316 286 181 149 184 303 250 142 83 62 35 63 21 50 28 42 67 63 54 63 61 43 60 62 54 51 57 24 354 339 323 312 328 324 330 323 316
47 60 265 271 305 304 274 267 240 180 289 253 191 240 109 99 71 37 17 15 354 3 315 39 29 89 80 68 43 21 13 357 313 311 324 336 338 321 299 295 313 315 316 321
341 323 346 316 280 282 63 32 45 41 217 228 244 242 93 65 47 38 21 319 335 325 331 330 34 83 79 78 26 313 305 313 322 334 318 322 319 320 319 303 301 299 298 301
9 312 212 223 283 305 292 279 281 119 272 349 260 284 246 237 183 241 274 277 255 266 291 225 47 9 301 276 261 239 236 262 277 294 298 287 293 298 301 304 304 297 291 297
25 255 271 286 295 289 282 280 267 208 218 225 248 258 282 285 202 201 204 234 249 254 183 211 246 265 260 260 270 239 243 257 264 281 293 298 293 284 283 291 292 291 284 286
358 293 325 294 280 276 275 265 260 257 242 236 243 249 242 233 50 97 160 183 236 292 257 250 265 315 310 342 346 277 260 249 262 275 296 298 292 291 293 292 288 287 282 280
171 238 359 265 317 344 302 250 251 259 247 253 256 289 16 76 74 21 351 342 309 306 44 40 20 323 331 321 312 293 276 240 257 273 279 277 287 297 302 312 314 312 298 284
168 167 154 275 286 252 270 349 34 91 44 11 51 52 47 25 18 347 9 39 23 6 357 343 341 346 338 330 323 316 305 286 266 259 262 264 269 278 286 291 295 301 302 318
195 180 205 252 259 293 306 357 45 39 59 29 65 71 63 19 350 212 43 12 347 335 325 309 318 313 309 306 304 297 291 283 269 263 261 261 261 268 273 276 283 288 295 297
172 164 172 224 275 278 121 348 340 28 142 18 12 354 19 26 341 288 340 299 300 305 309 306 322 316 311 308 300 281 277 293 280 276 274 272 267 262 263 268 275 282 285 284
154 184 211 220 234 280 360 43 326 227 203 298 281 7 21 5 244 277 327 333 324 311 312 330 323 307 304 345 5 351 336 323 315 315 308 298 281 273 277 277 272 269 272 278
191 183 212 197 212 222 -0 32 28 305 254 286 326 18 5 330 328 330 324 320 318 327 323 311 337 3 350 347 347 323 305 302 298 295 291 287 283 279 277 270 265 268 271 270
264 199 251 196 288 213 241 337 350 353 26 360 14 11 7 341 330 327 321 316 315 305 334 8 354 334 329 320 315 300 298 299 296 293 289 288 286 278 268 263 262 266 261 260
249 174 201 224 315 294 86 39 12 340 339 342 355 349 7 349 331 321 311 312 348 6 352 339 326 315 309 313 312 302 301 298 294 288 286 285 282 279 271 262 263 259 257 256
270 203 284 271 38 60 36 358 298 292 311 1 18 3 343 322 310 335 339 3 349 337 325 320 314 307 308 307 302 300 298 297 290 287 284 281 276 272 269 259 257 259 257 253
30 5 206 221 95 156 276 255 295 13 29 15 354 329 330 353 349 15 359 340 328 319 315 311 309 309 304 303 301 301 300 297 294 293 291 288 279 268 258 260 265 258 259 260